カタログに戻る

COSMOS 1559

運用中ナビゲーションLEO
NORAD 14998·PAYLOAD·🇷🇺 Russia

打ち上げ May 28, 1984 から Plesetsk Cosmodrome

Loading…

次のパス (今後24時間)

TLE

最新Source: Space-Track

元期: Sep 14, 2026, 11:23 UTC

1 14998U 84052A   26257.47449374 -.00000036  00000-0 -14630-3 0  9992
2 14998  74.0103  65.7508 0025791 347.5483  41.7099 12.43981414920645

AllMySatでCOSMOS 1559をリアルタイム追跡

Download on the App Store